Year,Month,Day,Hour,Minute,Value (Times are PST for temperature in C)
2019,12,12,00,00,7.80
2019,12,12,00,01,7.80
2019,12,12,00,02,7.70
2019,12,12,00,03,7.70
2019,12,12,00,04,7.70
2019,12,12,00,05,7.70
2019,12,12,00,06,7.70
2019,12,12,00,07,7.70
2019,12,12,00,08,7.70
2019,12,12,00,09,7.70
2019,12,12,00,10,7.60
2019,12,12,00,11,7.60
2019,12,12,00,12,7.60
2019,12,12,00,13,7.60
2019,12,12,00,14,7.60
2019,12,12,00,15,7.50
2019,12,12,00,16,7.50
2019,12,12,00,17,7.50
2019,12,12,00,18,7.50
2019,12,12,00,19,7.50
2019,12,12,00,20,7.40
2019,12,12,00,21,7.40
2019,12,12,00,22,7.40
2019,12,12,00,23,7.40
2019,12,12,00,24,7.40
2019,12,12,00,25,7.30
2019,12,12,00,26,7.30
2019,12,12,00,27,7.30
2019,12,12,00,28,7.30
2019,12,12,00,29,7.30
2019,12,12,00,30,7.30
2019,12,12,00,31,7.30
2019,12,12,00,32,7.30
2019,12,12,00,33,7.30
2019,12,12,00,34,7.30
2019,12,12,00,35,7.20
2019,12,12,00,36,7.20
2019,12,12,00,37,7.20
2019,12,12,00,38,7.20
2019,12,12,00,39,7.20
2019,12,12,00,40,7.20
2019,12,12,00,41,7.20
2019,12,12,00,42,7.20
2019,12,12,00,43,7.20
2019,12,12,00,44,7.20
2019,12,12,00,45,7.20
2019,12,12,00,46,7.10
2019,12,12,00,47,7.10
2019,12,12,00,48,7.10
2019,12,12,00,49,7.10
2019,12,12,00,50,7.10
2019,12,12,00,51,7.20
2019,12,12,00,52,7.20
2019,12,12,00,53,7.20
2019,12,12,00,54,7.20
2019,12,12,00,55,7.20
2019,12,12,00,56,7.30
2019,12,12,00,57,7.30
2019,12,12,00,58,7.30
2019,12,12,00,59,7.30
2019,12,12,01,00,7.30
2019,12,12,01,01,7.30
2019,12,12,01,02,7.30
2019,12,12,01,03,7.40
2019,12,12,01,04,7.40
2019,12,12,01,05,7.40
2019,12,12,01,06,7.40
2019,12,12,01,07,7.40
2019,12,12,01,08,7.40
2019,12,12,01,09,7.50
2019,12,12,01,10,7.50
2019,12,12,01,11,7.50
2019,12,12,01,12,7.50
2019,12,12,01,13,7.50
2019,12,12,01,14,7.50
2019,12,12,01,15,7.50
2019,12,12,01,16,7.50
2019,12,12,01,17,7.50
2019,12,12,01,18,7.50
2019,12,12,01,19,7.50
2019,12,12,01,20,7.50
2019,12,12,01,21,7.50
2019,12,12,01,22,7.50
2019,12,12,01,23,7.50
2019,12,12,01,24,7.50
2019,12,12,01,25,7.50
2019,12,12,01,26,7.50
2019,12,12,01,27,7.50
2019,12,12,01,28,7.50
2019,12,12,01,29,7.50
2019,12,12,01,30,7.50
2019,12,12,01,31,7.40
2019,12,12,01,32,7.40
2019,12,12,01,33,7.40
2019,12,12,01,34,7.40
2019,12,12,01,35,7.40
2019,12,12,01,36,7.40
2019,12,12,01,37,7.40
2019,12,12,01,38,7.40
2019,12,12,01,39,7.40
2019,12,12,01,40,7.40
2019,12,12,01,41,7.50
2019,12,12,01,42,7.50
2019,12,12,01,43,7.50
2019,12,12,01,44,7.60
2019,12,12,01,45,7.60
2019,12,12,01,46,7.60
2019,12,12,01,47,7.60
2019,12,12,01,48,7.70
2019,12,12,01,49,7.70
2019,12,12,01,50,7.70
2019,12,12,01,51,7.70
2019,12,12,01,52,7.70
2019,12,12,01,53,7.80
2019,12,12,01,54,7.80
2019,12,12,01,55,7.80
2019,12,12,01,56,7.80
2019,12,12,01,57,7.80
2019,12,12,01,58,7.80
2019,12,12,01,59,7.80
2019,12,12,02,00,7.80
2019,12,12,02,01,7.80
2019,12,12,02,02,7.80
2019,12,12,02,03,7.80
2019,12,12,02,04,7.90
2019,12,12,02,05,7.90
2019,12,12,02,06,7.90
2019,12,12,02,07,7.90
2019,12,12,02,08,7.90
2019,12,12,02,09,7.90
2019,12,12,02,10,7.90
2019,12,12,02,11,7.90
2019,12,12,02,12,7.90
2019,12,12,02,13,7.90
2019,12,12,02,14,7.90
2019,12,12,02,15,7.90
2019,12,12,02,16,7.90
2019,12,12,02,17,7.90
2019,12,12,02,18,7.90
2019,12,12,02,19,7.90
2019,12,12,02,20,7.90
2019,12,12,02,21,7.90
2019,12,12,02,22,7.90
2019,12,12,02,23,7.90
2019,12,12,02,24,7.90
2019,12,12,02,25,7.90
2019,12,12,02,26,7.90
2019,12,12,02,27,7.90
2019,12,12,02,28,7.90
2019,12,12,02,29,7.90
2019,12,12,02,30,7.90
2019,12,12,02,31,7.90
2019,12,12,02,32,7.90
2019,12,12,02,33,7.90
2019,12,12,02,34,7.90
2019,12,12,02,35,8.00
2019,12,12,02,36,8.00
2019,12,12,02,37,8.00
2019,12,12,02,38,8.00
2019,12,12,02,39,8.10
2019,12,12,02,40,8.20
2019,12,12,02,41,8.20
2019,12,12,02,42,8.20
2019,12,12,02,43,8.30
2019,12,12,02,44,8.40
2019,12,12,02,45,8.40
2019,12,12,02,46,8.40
2019,12,12,02,47,8.50
2019,12,12,02,48,8.60
2019,12,12,02,49,8.60
2019,12,12,02,50,8.60
2019,12,12,02,51,8.70
2019,12,12,02,52,8.70
2019,12,12,02,53,8.70
2019,12,12,02,54,8.80
2019,12,12,02,55,8.90
2019,12,12,02,56,8.90
2019,12,12,02,57,8.90
2019,12,12,02,58,8.90
2019,12,12,02,59,8.90
2019,12,12,03,00,9.00
2019,12,12,03,01,9.00
2019,12,12,03,02,9.00
2019,12,12,03,03,9.00
2019,12,12,03,04,9.00
2019,12,12,03,05,9.00
2019,12,12,03,06,9.00
2019,12,12,03,07,9.00
2019,12,12,03,08,9.00
2019,12,12,03,09,9.00
2019,12,12,03,10,9.00
2019,12,12,03,11,9.00
2019,12,12,03,12,9.00
2019,12,12,03,13,9.00
2019,12,12,03,14,9.10
2019,12,12,03,15,9.10
2019,12,12,03,16,9.10
2019,12,12,03,17,9.10
2019,12,12,03,18,9.10
2019,12,12,03,19,9.10
2019,12,12,03,20,9.10
2019,12,12,03,21,9.10
2019,12,12,03,22,9.10
2019,12,12,03,23,9.10
2019,12,12,03,24,9.10
2019,12,12,03,25,9.10
2019,12,12,03,26,9.10
2019,12,12,03,27,9.00
2019,12,12,03,28,9.00
2019,12,12,03,29,8.90
2019,12,12,03,30,8.90
2019,12,12,03,31,8.90
2019,12,12,03,32,8.80
2019,12,12,03,33,8.80
2019,12,12,03,34,8.80
2019,12,12,03,35,8.80
2019,12,12,03,36,8.80
2019,12,12,03,37,8.80
2019,12,12,03,38,8.80
2019,12,12,03,39,8.80
2019,12,12,03,40,8.80
2019,12,12,03,41,8.90
2019,12,12,03,42,8.90
2019,12,12,03,43,9.00
2019,12,12,03,44,9.00
2019,12,12,03,45,9.00
2019,12,12,03,46,9.10
2019,12,12,03,47,9.10
2019,12,12,03,48,9.20
2019,12,12,03,49,9.20
2019,12,12,03,50,9.20
2019,12,12,03,51,9.20
2019,12,12,03,52,9.20
2019,12,12,03,53,9.30
2019,12,12,03,54,9.30
2019,12,12,03,55,9.30
2019,12,12,03,56,9.30
2019,12,12,03,57,9.40
2019,12,12,03,58,9.40
2019,12,12,03,59,9.50
2019,12,12,04,00,9.50
2019,12,12,04,01,9.50
2019,12,12,04,02,9.50
2019,12,12,04,03,9.50
2019,12,12,04,04,9.50
2019,12,12,04,05,9.50
2019,12,12,04,06,9.40
2019,12,12,04,07,9.40
2019,12,12,04,08,9.30
2019,12,12,04,09,9.20
2019,12,12,04,10,9.10
2019,12,12,04,11,9.00
2019,12,12,04,12,9.00
2019,12,12,04,13,8.90
2019,12,12,04,14,8.90
2019,12,12,04,15,8.90
2019,12,12,04,16,8.90
2019,12,12,04,17,8.90
2019,12,12,04,18,8.90
2019,12,12,04,19,8.90
2019,12,12,04,20,8.90
2019,12,12,04,21,8.90
2019,12,12,04,22,8.90
2019,12,12,04,23,8.90
2019,12,12,04,24,8.90
2019,12,12,04,25,8.90
2019,12,12,04,26,8.90
2019,12,12,04,27,8.90
2019,12,12,04,28,8.90
2019,12,12,04,29,8.80
2019,12,12,04,30,8.80
2019,12,12,04,31,8.80
2019,12,12,04,32,8.70
2019,12,12,04,33,8.70
2019,12,12,04,34,8.70
2019,12,12,04,35,8.70
2019,12,12,04,36,8.70
2019,12,12,04,37,8.70
2019,12,12,04,38,8.70
2019,12,12,04,39,8.70
2019,12,12,04,40,8.80
2019,12,12,04,41,8.80
2019,12,12,04,42,8.80
2019,12,12,04,43,8.80
2019,12,12,04,44,8.80
2019,12,12,04,45,8.80
2019,12,12,04,46,8.80
2019,12,12,04,47,8.80
2019,12,12,04,48,8.80
2019,12,12,04,49,8.80
2019,12,12,04,50,8.80
2019,12,12,04,51,8.80
2019,12,12,04,52,8.90
2019,12,12,04,53,8.90
2019,12,12,04,54,8.90
2019,12,12,04,55,8.90
2019,12,12,04,56,8.90
2019,12,12,04,57,8.90
2019,12,12,04,58,8.90
2019,12,12,04,59,8.90
2019,12,12,05,00,8.80
2019,12,12,05,01,8.70
2019,12,12,05,02,8.70
2019,12,12,05,03,8.70
2019,12,12,05,04,8.70
2019,12,12,05,05,8.70
2019,12,12,05,06,8.70
2019,12,12,05,07,8.60
2019,12,12,05,08,8.60
2019,12,12,05,09,8.60
2019,12,12,05,10,8.60
2019,12,12,05,11,8.60
2019,12,12,05,12,8.60
2019,12,12,05,13,8.60
2019,12,12,05,14,8.60
2019,12,12,05,15,8.50
2019,12,12,05,16,8.50
2019,12,12,05,17,8.50
2019,12,12,05,18,8.60
2019,12,12,05,19,8.60
2019,12,12,05,20,8.60
2019,12,12,05,21,8.60
2019,12,12,05,22,8.60
2019,12,12,05,23,8.70
2019,12,12,05,24,8.60
2019,12,12,05,25,8.60
2019,12,12,05,26,8.60
2019,12,12,05,27,8.50
2019,12,12,05,28,8.50
2019,12,12,05,29,8.50
2019,12,12,05,30,8.40
2019,12,12,05,31,8.50
2019,12,12,05,32,8.50
2019,12,12,05,33,8.50
2019,12,12,05,34,8.60
2019,12,12,05,35,8.60
2019,12,12,05,36,8.60
2019,12,12,05,37,8.70
2019,12,12,05,38,8.70
2019,12,12,05,39,8.70
2019,12,12,05,40,8.70
2019,12,12,05,41,8.70
2019,12,12,05,42,8.70
2019,12,12,05,43,8.70
2019,12,12,05,44,8.70
2019,12,12,05,45,8.70
2019,12,12,05,46,8.70
2019,12,12,05,47,8.70
2019,12,12,05,48,8.80
2019,12,12,05,49,8.80
2019,12,12,05,50,8.80
2019,12,12,05,51,8.90
2019,12,12,05,52,8.90
2019,12,12,05,53,8.90
2019,12,12,05,54,8.90
2019,12,12,05,55,8.90
2019,12,12,05,56,8.90
2019,12,12,05,57,8.90
2019,12,12,05,58,8.90
2019,12,12,05,59,8.80
2019,12,12,06,00,8.80
2019,12,12,06,01,8.80
2019,12,12,06,02,8.80
2019,12,12,06,03,8.70
2019,12,12,06,04,8.70
2019,12,12,06,05,8.70
2019,12,12,06,06,8.70
2019,12,12,06,07,8.70
2019,12,12,06,08,8.70
2019,12,12,06,09,8.70
2019,12,12,06,10,8.70
2019,12,12,06,11,8.70
2019,12,12,06,12,8.70
2019,12,12,06,13,8.60
2019,12,12,06,14,8.60
2019,12,12,06,15,8.60
2019,12,12,06,16,8.60
2019,12,12,06,17,8.60
2019,12,12,06,18,8.70
2019,12,12,06,19,8.70
2019,12,12,06,20,8.70
2019,12,12,06,21,8.70
2019,12,12,06,22,8.70
2019,12,12,06,23,8.70
2019,12,12,06,24,8.70
2019,12,12,06,25,8.70
2019,12,12,06,26,8.70
2019,12,12,06,27,8.70
2019,12,12,06,28,8.70
2019,12,12,06,29,8.70
2019,12,12,06,30,8.70
2019,12,12,06,31,8.70
2019,12,12,06,32,8.60
2019,12,12,06,33,8.60
2019,12,12,06,34,8.60
2019,12,12,06,35,8.60
2019,12,12,06,36,8.60
2019,12,12,06,37,8.60
2019,12,12,06,38,8.50
2019,12,12,06,39,8.60
2019,12,12,06,40,8.60
2019,12,12,06,41,8.60
2019,12,12,06,42,8.60
2019,12,12,06,43,8.60
2019,12,12,06,44,8.60
2019,12,12,06,45,8.60
2019,12,12,06,46,8.60
2019,12,12,06,47,8.60
2019,12,12,06,48,8.60
2019,12,12,06,49,8.60
2019,12,12,06,50,8.60
2019,12,12,06,51,8.50
2019,12,12,06,52,8.50
2019,12,12,06,53,8.50
2019,12,12,06,54,8.40
2019,12,12,06,55,8.40
2019,12,12,06,56,8.40
2019,12,12,06,57,8.40
2019,12,12,06,58,8.40
2019,12,12,06,59,8.30
2019,12,12,07,00,8.30
2019,12,12,07,01,8.30
2019,12,12,07,02,8.30
2019,12,12,07,03,8.30
2019,12,12,07,04,8.30
2019,12,12,07,05,8.30
2019,12,12,07,06,8.30
2019,12,12,07,07,8.30
2019,12,12,07,08,8.20
2019,12,12,07,09,8.20
2019,12,12,07,10,8.20
2019,12,12,07,11,8.20
2019,12,12,07,12,8.20
2019,12,12,07,13,8.20
2019,12,12,07,14,8.20
2019,12,12,07,15,8.20
2019,12,12,07,16,8.20
2019,12,12,07,17,8.20
2019,12,12,07,18,8.20
2019,12,12,07,19,8.20
2019,12,12,07,20,8.20
2019,12,12,07,21,8.10
2019,12,12,07,22,8.10
2019,12,12,07,23,8.10
2019,12,12,07,24,8.10
2019,12,12,07,25,8.10
2019,12,12,07,26,8.10
2019,12,12,07,27,8.10
2019,12,12,07,28,8.10
2019,12,12,07,29,8.00
2019,12,12,07,30,8.00
2019,12,12,07,31,8.00
2019,12,12,07,32,8.00
2019,12,12,07,33,8.00
2019,12,12,07,34,7.90
2019,12,12,07,35,7.90
2019,12,12,07,36,7.90
2019,12,12,07,37,7.90
2019,12,12,07,38,7.90
2019,12,12,07,39,7.80
2019,12,12,07,40,7.80
2019,12,12,07,41,7.80
2019,12,12,07,42,7.80
2019,12,12,07,43,7.80
2019,12,12,07,44,7.80
2019,12,12,07,45,7.80
2019,12,12,07,46,7.80
2019,12,12,07,47,7.80
2019,12,12,07,48,7.90
2019,12,12,07,49,7.90
2019,12,12,07,50,7.90
2019,12,12,07,51,7.90
2019,12,12,07,52,7.90
2019,12,12,07,53,7.90
2019,12,12,07,54,7.90
2019,12,12,07,55,7.90
2019,12,12,07,56,7.90
2019,12,12,07,57,7.90
2019,12,12,07,58,7.90
2019,12,12,07,59,7.90
2019,12,12,08,00,8.00
2019,12,12,08,01,8.00
2019,12,12,08,02,8.00
2019,12,12,08,03,8.00
2019,12,12,08,04,8.00
2019,12,12,08,05,8.00
2019,12,12,08,06,8.00
2019,12,12,08,07,8.10
2019,12,12,08,08,8.10
2019,12,12,08,09,8.10
2019,12,12,08,10,8.10
2019,12,12,08,11,8.10
2019,12,12,08,12,8.10
2019,12,12,08,13,8.10
2019,12,12,08,14,8.10
2019,12,12,08,15,8.10
2019,12,12,08,16,8.10
2019,12,12,08,17,8.20
2019,12,12,08,18,8.20
2019,12,12,08,19,8.20
2019,12,12,08,20,8.10
2019,12,12,08,21,8.10
2019,12,12,08,22,8.10
2019,12,12,08,23,8.10
2019,12,12,08,24,8.10
2019,12,12,08,25,8.10
2019,12,12,08,26,8.10
2019,12,12,08,27,8.00
2019,12,12,08,28,8.00
2019,12,12,08,29,7.90
2019,12,12,08,30,7.90
2019,12,12,08,31,7.90
2019,12,12,08,32,7.90
2019,12,12,08,33,7.90
2019,12,12,08,34,7.80
2019,12,12,08,35,7.80
2019,12,12,08,36,7.80
2019,12,12,08,37,7.80
2019,12,12,08,38,7.80
2019,12,12,08,39,7.80
2019,12,12,08,40,7.80
2019,12,12,08,41,7.80
2019,12,12,08,42,7.80
2019,12,12,08,43,7.80
2019,12,12,08,44,7.80
2019,12,12,08,45,7.80
2019,12,12,08,46,7.80
2019,12,12,08,47,7.80
2019,12,12,08,48,7.80
2019,12,12,08,49,7.80
2019,12,12,08,50,7.80
2019,12,12,08,51,7.80
2019,12,12,08,52,7.80
2019,12,12,08,53,7.80
2019,12,12,08,54,7.80
2019,12,12,08,55,7.80
2019,12,12,08,56,7.80
2019,12,12,08,57,7.80
2019,12,12,08,58,7.80
2019,12,12,08,59,7.70
2019,12,12,09,00,7.70
2019,12,12,09,01,7.70
2019,12,12,09,02,7.70
2019,12,12,09,03,7.70
2019,12,12,09,04,7.70
2019,12,12,09,05,7.70
2019,12,12,09,06,7.70
2019,12,12,09,07,7.70
2019,12,12,09,08,7.70
2019,12,12,09,09,7.70
2019,12,12,09,10,7.70
2019,12,12,09,11,7.80
2019,12,12,09,12,7.80
2019,12,12,09,13,7.80
2019,12,12,09,14,7.80
2019,12,12,09,15,7.80
2019,12,12,09,16,7.80
2019,12,12,09,17,7.80
2019,12,12,09,18,7.80
2019,12,12,09,19,7.80
2019,12,12,09,20,7.80
2019,12,12,09,21,7.80
2019,12,12,09,22,7.80
2019,12,12,09,23,7.80
2019,12,12,09,24,7.80
2019,12,12,09,25,7.80
2019,12,12,09,26,7.80
2019,12,12,09,27,7.80
2019,12,12,09,28,7.80
2019,12,12,09,29,7.80
2019,12,12,09,30,7.80
2019,12,12,09,31,7.80
2019,12,12,09,32,7.80
2019,12,12,09,33,7.80
2019,12,12,09,34,7.80
2019,12,12,09,35,7.80
2019,12,12,09,36,7.80
2019,12,12,09,37,7.80
2019,12,12,09,38,7.80
2019,12,12,09,39,7.80
2019,12,12,09,40,7.80
2019,12,12,09,41,7.80
2019,12,12,09,42,7.80
2019,12,12,09,43,7.80
2019,12,12,09,44,7.80
2019,12,12,09,45,7.80
2019,12,12,09,46,7.80
2019,12,12,09,47,7.80
2019,12,12,09,48,7.80
2019,12,12,09,49,7.80
2019,12,12,09,50,7.80
2019,12,12,09,51,7.80
2019,12,12,09,52,7.80
2019,12,12,09,53,7.80
2019,12,12,09,54,7.80
2019,12,12,09,55,7.80
2019,12,12,09,56,7.80
2019,12,12,09,57,7.80
2019,12,12,09,58,7.80
2019,12,12,09,59,7.80
2019,12,12,10,00,7.80
2019,12,12,10,01,7.80
2019,12,12,10,02,7.80
2019,12,12,10,03,7.80
2019,12,12,10,04,7.80
2019,12,12,10,05,7.80
2019,12,12,10,06,7.80
2019,12,12,10,07,7.80
2019,12,12,10,08,7.80
2019,12,12,10,09,7.80
2019,12,12,10,10,7.80
2019,12,12,10,11,7.80
2019,12,12,10,12,7.80
2019,12,12,10,13,7.80
2019,12,12,10,14,7.80
2019,12,12,10,15,7.80
2019,12,12,10,16,7.80
2019,12,12,10,17,7.80
2019,12,12,10,18,7.80
2019,12,12,10,19,7.80
2019,12,12,10,20,7.80
2019,12,12,10,21,7.80
2019,12,12,10,22,7.80
2019,12,12,10,23,7.80
2019,12,12,10,24,7.80
2019,12,12,10,25,7.80
2019,12,12,10,26,7.80
2019,12,12,10,27,7.80
2019,12,12,10,28,7.80
2019,12,12,10,29,7.80
2019,12,12,10,30,7.80
2019,12,12,10,31,7.80
2019,12,12,10,32,7.80
2019,12,12,10,33,7.80
2019,12,12,10,34,7.80
2019,12,12,10,35,7.90
2019,12,12,10,36,7.90
2019,12,12,10,37,7.80
2019,12,12,10,38,7.80
2019,12,12,10,39,7.80
2019,12,12,10,40,7.80
2019,12,12,10,41,7.80
2019,12,12,10,42,7.80
2019,12,12,10,43,7.80
2019,12,12,10,44,7.80
2019,12,12,10,45,7.90
2019,12,12,10,46,7.90
2019,12,12,10,47,7.90
2019,12,12,10,48,7.90
2019,12,12,10,49,7.90
2019,12,12,10,50,7.90
2019,12,12,10,51,7.90
2019,12,12,10,52,7.90
2019,12,12,10,53,7.90
2019,12,12,10,54,7.90
2019,12,12,10,55,8.00
2019,12,12,10,56,8.00
2019,12,12,10,57,8.00
2019,12,12,10,58,8.00
2019,12,12,10,59,8.00
2019,12,12,11,00,8.00
2019,12,12,11,01,8.00
2019,12,12,11,02,8.00
2019,12,12,11,03,8.00
2019,12,12,11,04,8.10
2019,12,12,11,05,8.10
2019,12,12,11,06,8.10
2019,12,12,11,07,8.20
2019,12,12,11,08,8.20
2019,12,12,11,09,8.20
2019,12,12,11,10,8.20
2019,12,12,11,11,8.10
2019,12,12,11,12,8.10
2019,12,12,11,13,8.10
2019,12,12,11,14,8.10
2019,12,12,11,15,8.10
2019,12,12,11,16,8.10
2019,12,12,11,17,8.20
2019,12,12,11,18,8.20
2019,12,12,11,19,8.20
2019,12,12,11,20,8.20
2019,12,12,11,21,8.20
2019,12,12,11,22,8.30
2019,12,12,11,23,8.30
2019,12,12,11,24,8.30
2019,12,12,11,25,8.30
2019,12,12,11,26,8.30
2019,12,12,11,27,8.30
2019,12,12,11,28,8.30
2019,12,12,11,29,8.40
2019,12,12,11,30,8.40
2019,12,12,11,31,8.40
2019,12,12,11,32,8.50
2019,12,12,11,33,8.50
2019,12,12,11,34,8.50
2019,12,12,11,35,8.50
2019,12,12,11,36,8.50
2019,12,12,11,37,8.50
2019,12,12,11,38,8.50
2019,12,12,11,39,8.60
2019,12,12,11,40,8.60
2019,12,12,11,41,8.60
2019,12,12,11,42,8.60
2019,12,12,11,43,8.60
2019,12,12,11,44,8.60
2019,12,12,11,45,8.60
2019,12,12,11,46,8.70
2019,12,12,11,47,8.70
2019,12,12,11,48,8.70
2019,12,12,11,49,8.60
2019,12,12,11,50,8.60
2019,12,12,11,51,8.60
2019,12,12,11,52,8.50
2019,12,12,11,53,8.50
2019,12,12,11,54,8.50
2019,12,12,11,55,8.50
2019,12,12,11,56,8.50
2019,12,12,11,57,8.50
2019,12,12,11,58,8.50
2019,12,12,11,59,8.50
2019,12,12,12,00,8.50
2019,12,12,12,01,8.40
2019,12,12,12,02,8.40
2019,12,12,12,03,8.40
2019,12,12,12,04,8.40
2019,12,12,12,05,8.40
2019,12,12,12,06,8.40
2019,12,12,12,07,8.40
2019,12,12,12,08,8.40
2019,12,12,12,09,8.30
2019,12,12,12,10,8.30
2019,12,12,12,11,8.30
2019,12,12,12,12,8.30
2019,12,12,12,13,8.30
2019,12,12,12,14,8.30
2019,12,12,12,15,8.30
2019,12,12,12,16,8.30
2019,12,12,12,17,8.30
2019,12,12,12,18,8.30
2019,12,12,12,19,8.30
2019,12,12,12,20,8.30
2019,12,12,12,21,8.20
2019,12,12,12,22,8.20
2019,12,12,12,23,8.20
2019,12,12,12,24,8.20
2019,12,12,12,25,8.20
2019,12,12,12,26,8.20
2019,12,12,12,27,8.20
2019,12,12,12,28,8.20
2019,12,12,12,29,8.20
2019,12,12,12,30,8.20
2019,12,12,12,31,8.20
2019,12,12,12,32,8.20
2019,12,12,12,33,8.20
2019,12,12,12,34,8.20
2019,12,12,12,35,8.20
2019,12,12,12,36,8.20
2019,12,12,12,37,8.10
2019,12,12,12,38,8.10
2019,12,12,12,39,8.10
2019,12,12,12,40,8.10
2019,12,12,12,41,8.00
2019,12,12,12,42,8.00
2019,12,12,12,43,8.00
2019,12,12,12,44,8.00
2019,12,12,12,45,7.90
2019,12,12,12,46,7.90
2019,12,12,12,47,7.90
2019,12,12,12,48,7.90
2019,12,12,12,49,7.90
2019,12,12,12,50,7.90
2019,12,12,12,51,7.90
2019,12,12,12,52,7.90
2019,12,12,12,53,7.90
2019,12,12,12,54,7.90
2019,12,12,12,55,7.90
2019,12,12,12,56,7.80
2019,12,12,12,57,7.80
2019,12,12,12,58,7.80
2019,12,12,12,59,7.80
2019,12,12,13,00,7.80
2019,12,12,13,01,7.80
2019,12,12,13,02,7.80
2019,12,12,13,03,7.80
2019,12,12,13,04,7.80
2019,12,12,13,05,7.80
2019,12,12,13,06,7.80
2019,12,12,13,07,7.80
2019,12,12,13,08,7.80
2019,12,12,13,09,7.80
2019,12,12,13,10,7.80
2019,12,12,13,11,7.80
2019,12,12,13,12,7.70
2019,12,12,13,13,7.60
2019,12,12,13,14,7.60
2019,12,12,13,15,7.50
2019,12,12,13,16,7.40
2019,12,12,13,17,7.30
2019,12,12,13,18,7.30
2019,12,12,13,19,7.30
2019,12,12,13,20,7.20
2019,12,12,13,21,7.20
2019,12,12,13,22,7.20
2019,12,12,13,23,7.10
2019,12,12,13,24,7.10
2019,12,12,13,25,7.10
2019,12,12,13,26,7.00
2019,12,12,13,27,7.00
2019,12,12,13,28,7.00
2019,12,12,13,29,7.00
2019,12,12,13,30,7.00
2019,12,12,13,31,7.00
2019,12,12,13,32,6.90
2019,12,12,13,33,6.80
2019,12,12,13,34,6.80
2019,12,12,13,35,6.80
2019,12,12,13,36,6.80
2019,12,12,13,37,6.80
2019,12,12,13,38,6.80
2019,12,12,13,39,6.80
2019,12,12,13,40,6.80
2019,12,12,13,41,6.70
2019,12,12,13,42,6.70
2019,12,12,13,43,6.70
2019,12,12,13,44,6.60
2019,12,12,13,45,6.60
2019,12,12,13,46,6.50
2019,12,12,13,47,6.40
2019,12,12,13,48,6.40
2019,12,12,13,49,6.30
2019,12,12,13,50,6.20
2019,12,12,13,51,6.20
2019,12,12,13,52,6.10
2019,12,12,13,53,6.10
2019,12,12,13,54,6.00
2019,12,12,13,55,6.00
2019,12,12,13,56,6.00
2019,12,12,13,57,6.00
2019,12,12,13,58,6.00
2019,12,12,13,59,5.90
2019,12,12,14,00,5.90
2019,12,12,14,01,5.90
2019,12,12,14,02,5.90
2019,12,12,14,03,5.80
2019,12,12,14,04,5.80
2019,12,12,14,05,5.80
2019,12,12,14,06,5.80
2019,12,12,14,07,5.80
2019,12,12,14,08,5.80
2019,12,12,14,09,5.80
2019,12,12,14,10,5.80
2019,12,12,14,11,5.80
2019,12,12,14,12,5.80
2019,12,12,14,13,5.80
2019,12,12,14,14,5.80
2019,12,12,14,15,5.80
2019,12,12,14,16,5.80
2019,12,12,14,17,5.80
2019,12,12,14,18,5.80
2019,12,12,14,19,5.90
2019,12,12,14,20,5.90
2019,12,12,14,21,5.90
2019,12,12,14,22,5.90
2019,12,12,14,23,5.90
2019,12,12,14,24,5.90
2019,12,12,14,25,5.90
2019,12,12,14,26,5.90
2019,12,12,14,27,5.90
2019,12,12,14,28,5.90
2019,12,12,14,29,5.90
2019,12,12,14,30,5.90
2019,12,12,14,31,5.90
2019,12,12,14,32,5.90
2019,12,12,14,33,5.90
2019,12,12,14,34,6.00
2019,12,12,14,35,6.00
2019,12,12,14,36,6.00
2019,12,12,14,37,6.00
2019,12,12,14,38,6.00
2019,12,12,14,39,6.00
2019,12,12,14,40,6.10
2019,12,12,14,41,6.10
2019,12,12,14,42,6.10
2019,12,12,14,43,6.20
2019,12,12,14,44,6.20
2019,12,12,14,45,6.20
2019,12,12,14,46,6.20
2019,12,12,14,47,6.20
2019,12,12,14,48,6.20
2019,12,12,14,49,6.20
2019,12,12,14,50,6.20
2019,12,12,14,51,6.20
2019,12,12,14,52,6.20
2019,12,12,14,53,6.20
2019,12,12,14,54,6.20
2019,12,12,14,55,6.20
2019,12,12,14,56,6.20
2019,12,12,14,57,6.20
2019,12,12,14,58,6.20
2019,12,12,14,59,6.20
2019,12,12,15,00,6.20
2019,12,12,15,01,6.20
2019,12,12,15,02,6.20
2019,12,12,15,03,6.20
2019,12,12,15,04,6.20
2019,12,12,15,05,6.20
2019,12,12,15,06,6.20
2019,12,12,15,07,6.20
2019,12,12,15,08,6.20
2019,12,12,15,09,6.20
2019,12,12,15,10,6.20
2019,12,12,15,11,6.20
2019,12,12,15,12,6.20
2019,12,12,15,13,6.20
2019,12,12,15,14,6.20
2019,12,12,15,15,6.20
2019,12,12,15,16,6.20
2019,12,12,15,17,6.30
2019,12,12,15,18,6.30
2019,12,12,15,19,6.30
2019,12,12,15,20,6.30
2019,12,12,15,21,6.30
2019,12,12,15,22,6.30
2019,12,12,15,23,6.30
2019,12,12,15,24,6.30
2019,12,12,15,25,6.30
2019,12,12,15,26,6.30
2019,12,12,15,27,6.30
2019,12,12,15,28,6.30
2019,12,12,15,29,6.30
2019,12,12,15,30,6.30
2019,12,12,15,31,6.30
2019,12,12,15,32,6.30
2019,12,12,15,33,6.30
2019,12,12,15,34,6.30
2019,12,12,15,35,6.30
2019,12,12,15,36,6.30
2019,12,12,15,37,6.30
2019,12,12,15,38,6.30
2019,12,12,15,39,6.30
2019,12,12,15,40,6.30
2019,12,12,15,41,6.30
2019,12,12,15,42,6.30
2019,12,12,15,43,6.30
2019,12,12,15,44,6.30
2019,12,12,15,45,6.30
2019,12,12,15,46,6.30
2019,12,12,15,47,6.30
2019,12,12,15,48,6.30
2019,12,12,15,49,6.30
2019,12,12,15,50,6.30
2019,12,12,15,51,6.40
2019,12,12,15,52,6.40
2019,12,12,15,53,6.40
2019,12,12,15,54,6.40
2019,12,12,15,55,6.40
2019,12,12,15,56,6.40
2019,12,12,15,57,6.40
2019,12,12,15,58,6.40
2019,12,12,15,59,6.40
2019,12,12,16,00,6.40
2019,12,12,16,01,6.40
2019,12,12,16,02,6.40
2019,12,12,16,03,6.40
2019,12,12,16,04,6.40
2019,12,12,16,05,6.40
2019,12,12,16,06,6.40
2019,12,12,16,07,6.40
2019,12,12,16,08,6.40
2019,12,12,16,09,6.40
2019,12,12,16,10,6.40
2019,12,12,16,11,6.40
2019,12,12,16,12,6.40
2019,12,12,16,13,6.40
2019,12,12,16,14,6.40
2019,12,12,16,15,6.40
2019,12,12,16,16,6.40
2019,12,12,16,17,6.40
2019,12,12,16,18,6.40
2019,12,12,16,19,6.40
2019,12,12,16,20,6.40
2019,12,12,16,21,6.30
2019,12,12,16,22,6.30
2019,12,12,16,23,6.30
2019,12,12,16,24,6.30
2019,12,12,16,25,6.30
2019,12,12,16,26,6.30
2019,12,12,16,27,6.30
2019,12,12,16,28,6.30
2019,12,12,16,29,6.30
2019,12,12,16,30,6.30
2019,12,12,16,31,6.30
2019,12,12,16,32,6.30
2019,12,12,16,33,6.30
2019,12,12,16,34,6.30
2019,12,12,16,35,6.30
2019,12,12,16,36,6.30
2019,12,12,16,37,6.30
2019,12,12,16,38,6.30
2019,12,12,16,39,6.30
2019,12,12,16,40,6.30
2019,12,12,16,41,6.30
2019,12,12,16,42,6.30
2019,12,12,16,43,6.40
2019,12,12,16,44,6.40
2019,12,12,16,45,6.40
2019,12,12,16,46,6.40
2019,12,12,16,47,6.40
2019,12,12,16,48,6.40
2019,12,12,16,49,6.40
2019,12,12,16,50,6.40
2019,12,12,16,51,6.40
2019,12,12,16,52,6.40
2019,12,12,16,53,6.30
2019,12,12,16,54,6.30
2019,12,12,16,55,6.30
2019,12,12,16,56,6.30
2019,12,12,16,57,6.30
2019,12,12,16,58,6.30
2019,12,12,16,59,6.30
2019,12,12,17,00,6.30
2019,12,12,17,01,6.30
2019,12,12,17,02,6.30
2019,12,12,17,03,6.30
2019,12,12,17,04,6.30
2019,12,12,17,05,6.30
2019,12,12,17,06,6.30
2019,12,12,17,07,6.30
2019,12,12,17,08,6.30
2019,12,12,17,09,6.30
2019,12,12,17,10,6.30
2019,12,12,17,11,6.30
2019,12,12,17,12,6.30
2019,12,12,17,13,6.20
2019,12,12,17,14,6.20
2019,12,12,17,15,6.20
2019,12,12,17,16,6.20
2019,12,12,17,17,6.20
2019,12,12,17,18,6.30
2019,12,12,17,19,6.30
2019,12,12,17,20,6.30
2019,12,12,17,21,6.30
2019,12,12,17,22,6.30
2019,12,12,17,23,6.30
2019,12,12,17,24,6.30
2019,12,12,17,25,6.30
2019,12,12,17,26,6.30
2019,12,12,17,27,6.30
2019,12,12,17,28,6.30
2019,12,12,17,29,6.30
2019,12,12,17,30,6.30
2019,12,12,17,31,6.30
2019,12,12,17,32,6.30
2019,12,12,17,33,6.30
2019,12,12,17,34,6.30
2019,12,12,17,35,6.30
2019,12,12,17,36,6.30
2019,12,12,17,37,6.30
2019,12,12,17,38,6.30
2019,12,12,17,39,6.30
2019,12,12,17,40,6.30
2019,12,12,17,41,6.30
2019,12,12,17,42,6.30
2019,12,12,17,43,6.30
2019,12,12,17,44,6.30
2019,12,12,17,45,6.30
2019,12,12,17,46,6.30
2019,12,12,17,47,6.30
2019,12,12,17,48,6.30
2019,12,12,17,49,6.30
2019,12,12,17,50,6.30
2019,12,12,17,51,6.30
2019,12,12,17,52,6.30
2019,12,12,17,53,6.30
2019,12,12,17,54,6.40
2019,12,12,17,55,6.40
2019,12,12,17,56,6.40
2019,12,12,17,57,6.40
2019,12,12,17,58,6.40
2019,12,12,17,59,6.40
2019,12,12,18,00,6.40
2019,12,12,18,01,6.40
2019,12,12,18,02,6.40
2019,12,12,18,03,6.40
2019,12,12,18,04,6.40
2019,12,12,18,05,6.40
2019,12,12,18,06,6.40